Location: Cruquius
(52.3348°N, 4.6319°E)
Time: 04:39:30
(UTC+00:00)

Cosmos 2154 Rocket - Pass Details

Date: 12 May 2021
Orbit: 965 x 997 km, 82.9° (Epoch: 14 June)

Event Time Altitude Azimuth Distance (km) Brightness Sun altitude
Rises 21:23:08 0° 349° (N) 3,725 8.4 -13.5°
Reaches altitude 10° 21:25:41 10° 349° (N) 2,768 7.5 -13.7°
Maximum altitude 21:32:03 88° 264° (W) 995 4.0 -14.2°
Enters shadow 21:36:55 18° 173° (S) 2,205 5.3 -14.6°
